Year,Month,Day,Hour,Minute,Value (Times are PST for windspeed in km/hr)
2006,02,03,00,00,3.30
2006,02,03,00,01,1.60
2006,02,03,00,02,1.70
2006,02,03,00,03,1.80
2006,02,03,00,04,0.30
2006,02,03,00,05,1.90
2006,02,03,00,06,1.90
2006,02,03,00,07,3.50
2006,02,03,00,08,3.20
2006,02,03,00,09,2.40
2006,02,03,00,10,4.40
2006,02,03,00,11,4.80
2006,02,03,00,12,2.50
2006,02,03,00,13,3.70
2006,02,03,00,14,3.10
2006,02,03,00,15,3.00
2006,02,03,00,16,3.70
2006,02,03,00,17,3.00
2006,02,03,00,18,3.80
2006,02,03,00,19,1.90
2006,02,03,00,20,4.60
2006,02,03,00,21,3.40
2006,02,03,00,22,3.00
2006,02,03,00,23,3.10
2006,02,03,00,24,3.40
2006,02,03,00,25,3.00
2006,02,03,00,26,3.10
2006,02,03,00,27,4.30
2006,02,03,00,28,2.50
2006,02,03,00,29,2.60
2006,02,03,00,30,2.70
2006,02,03,00,31,4.90
2006,02,03,00,32,5.20
2006,02,03,00,33,7.00
2006,02,03,00,34,5.50
2006,02,03,00,35,4.70
2006,02,03,00,36,6.10
2006,02,03,00,37,5.50
2006,02,03,00,38,6.50
2006,02,03,00,39,6.00
2006,02,03,00,40,4.70
2006,02,03,00,41,3.40
2006,02,03,00,42,5.60
2006,02,03,00,43,6.00
2006,02,03,00,44,4.90
2006,02,03,00,45,5.80
2006,02,03,00,46,4.70
2006,02,03,00,47,3.60
2006,02,03,00,48,3.70
2006,02,03,00,49,2.30
2006,02,03,00,50,2.20
2006,02,03,00,51,2.70
2006,02,03,00,52,3.40
2006,02,03,00,53,3.20
2006,02,03,00,54,3.90
2006,02,03,00,55,4.90
2006,02,03,00,56,2.50
2006,02,03,00,57,3.50
2006,02,03,00,58,2.50
2006,02,03,00,59,2.30
2006,02,03,01,00,2.50
2006,02,03,01,01,1.00
2006,02,03,01,02,1.50
2006,02,03,01,03,1.90
2006,02,03,01,04,2.80
2006,02,03,01,05,2.10
2006,02,03,01,06,1.50
2006,02,03,01,07,1.90
2006,02,03,01,08,4.10
2006,02,03,01,09,2.70
2006,02,03,01,10,2.30
2006,02,03,01,11,3.60
2006,02,03,01,12,2.50
2006,02,03,01,13,2.20
2006,02,03,01,14,2.70
2006,02,03,01,15,4.40
2006,02,03,01,16,3.20
2006,02,03,01,17,2.50
2006,02,03,01,18,3.20
2006,02,03,01,19,3.10
2006,02,03,01,20,1.70
2006,02,03,01,21,5.80
2006,02,03,01,22,2.90
2006,02,03,01,23,2.90
2006,02,03,01,24,3.00
2006,02,03,01,25,2.70
2006,02,03,01,26,1.50
2006,02,03,01,27,3.30
2006,02,03,01,28,4.10
2006,02,03,01,29,2.60
2006,02,03,01,30,0.70
2006,02,03,01,31,3.00
2006,02,03,01,32,4.70
2006,02,03,01,33,5.00
2006,02,03,01,34,5.50
2006,02,03,01,35,9.60
2006,02,03,01,36,4.40
2006,02,03,01,37,4.30
2006,02,03,01,38,3.20
2006,02,03,01,39,2.80
2006,02,03,01,40,3.00
2006,02,03,01,41,2.20
2006,02,03,01,42,2.00
2006,02,03,01,43,3.20
2006,02,03,01,44,2.40
2006,02,03,01,45,3.20
2006,02,03,01,46,2.50
2006,02,03,01,47,2.00
2006,02,03,01,48,2.60
2006,02,03,01,49,1.90
2006,02,03,01,50,1.60
2006,02,03,01,51,0.20
2006,02,03,01,52,0.10
2006,02,03,01,53,1.20
2006,02,03,01,54,1.30
2006,02,03,01,55,2.30
2006,02,03,01,56,1.80
2006,02,03,01,57,2.60
2006,02,03,01,58,3.30
2006,02,03,01,59,3.80
2006,02,03,02,00,2.50
2006,02,03,02,01,0.60
2006,02,03,02,02,1.40
2006,02,03,02,03,1.90
2006,02,03,02,04,3.00
2006,02,03,02,05,0.40
2006,02,03,02,06,1.40
2006,02,03,02,07,3.80
2006,02,03,02,08,2.50
2006,02,03,02,09,4.40
2006,02,03,02,10,5.80
2006,02,03,02,11,1.00
2006,02,03,02,12,1.50
2006,02,03,02,13,0.10
2006,02,03,02,14,1.40
2006,02,03,02,15,2.60
2006,02,03,02,16,0.60
2006,02,03,02,17,0.00
2006,02,03,02,18,0.00
2006,02,03,02,19,0.00
2006,02,03,02,20,0.00
2006,02,03,02,21,0.00
2006,02,03,02,22,0.00
2006,02,03,02,23,0.90
2006,02,03,02,24,4.70
2006,02,03,02,25,5.20
2006,02,03,02,26,5.60
2006,02,03,02,27,4.50
2006,02,03,02,28,4.10
2006,02,03,02,29,3.00
2006,02,03,02,30,2.00
2006,02,03,02,31,1.90
2006,02,03,02,32,2.10
2006,02,03,02,33,0.20
2006,02,03,02,34,0.80
2006,02,03,02,35,3.10
2006,02,03,02,36,1.80
2006,02,03,02,37,0.90
2006,02,03,02,38,1.50
2006,02,03,02,39,1.30
2006,02,03,02,40,4.40
2006,02,03,02,41,4.50
2006,02,03,02,42,1.90
2006,02,03,02,43,1.90
2006,02,03,02,44,1.70
2006,02,03,02,45,4.10
2006,02,03,02,46,4.10
2006,02,03,02,47,4.00
2006,02,03,02,48,3.50
2006,02,03,02,49,2.50
2006,02,03,02,50,1.90
2006,02,03,02,51,3.40
2006,02,03,02,52,4.50
2006,02,03,02,53,3.70
2006,02,03,02,54,1.60
2006,02,03,02,55,4.30
2006,02,03,02,56,6.00
2006,02,03,02,57,4.00
2006,02,03,02,58,3.00
2006,02,03,02,59,4.80
2006,02,03,03,00,4.40
2006,02,03,03,01,2.90
2006,02,03,03,02,1.60
2006,02,03,03,03,0.20
2006,02,03,03,04,0.00
2006,02,03,03,05,0.00
2006,02,03,03,06,0.00
2006,02,03,03,07,0.00
2006,02,03,03,08,0.00
2006,02,03,03,09,0.00
2006,02,03,03,10,0.00
2006,02,03,03,11,0.00
2006,02,03,03,12,0.00
2006,02,03,03,13,0.00
2006,02,03,03,14,0.00
2006,02,03,03,15,0.00
2006,02,03,03,16,0.00
2006,02,03,03,17,1.30
2006,02,03,03,18,3.40
2006,02,03,03,19,1.80
2006,02,03,03,20,3.50
2006,02,03,03,21,3.00
2006,02,03,03,22,2.40
2006,02,03,03,23,1.50
2006,02,03,03,24,0.10
2006,02,03,03,25,2.10
2006,02,03,03,26,2.90
2006,02,03,03,27,2.70
2006,02,03,03,28,5.50
2006,02,03,03,29,2.20
2006,02,03,03,30,3.90
2006,02,03,03,31,2.30
2006,02,03,03,32,1.50
2006,02,03,03,33,1.40
2006,02,03,03,34,5.10
2006,02,03,03,35,6.40
2006,02,03,03,36,4.80
2006,02,03,03,37,3.60
2006,02,03,03,38,1.40
2006,02,03,03,39,0.00
2006,02,03,03,40,0.90
2006,02,03,03,41,3.70
2006,02,03,03,42,2.50
2006,02,03,03,43,1.80
2006,02,03,03,44,1.40
2006,02,03,03,45,2.20
2006,02,03,03,46,1.90
2006,02,03,03,47,1.50
2006,02,03,03,48,3.40
2006,02,03,03,49,4.60
2006,02,03,03,50,3.70
2006,02,03,03,51,3.00
2006,02,03,03,52,4.30
2006,02,03,03,53,4.40
2006,02,03,03,54,5.00
2006,02,03,03,55,4.70
2006,02,03,03,56,6.10
2006,02,03,03,57,5.50
2006,02,03,03,58,6.80
2006,02,03,03,59,7.00
2006,02,03,04,00,6.20
2006,02,03,04,01,6.10
2006,02,03,04,02,5.80
2006,02,03,04,03,6.00
2006,02,03,04,04,6.10
2006,02,03,04,05,7.20
2006,02,03,04,06,7.70
2006,02,03,04,07,8.40
2006,02,03,04,08,5.60
2006,02,03,04,09,8.40
2006,02,03,04,10,6.60
2006,02,03,04,11,7.50
2006,02,03,04,12,6.80
2006,02,03,04,13,7.50
2006,02,03,04,14,8.50
2006,02,03,04,15,7.00
2006,02,03,04,16,9.10
2006,02,03,04,17,8.10
2006,02,03,04,18,7.60
2006,02,03,04,19,9.50
2006,02,03,04,20,8.00
2006,02,03,04,21,9.00
2006,02,03,04,22,9.10
2006,02,03,04,23,8.70
2006,02,03,04,24,9.70
2006,02,03,04,25,6.80
2006,02,03,04,26,7.50
2006,02,03,04,27,7.60
2006,02,03,04,28,9.90
2006,02,03,04,29,9.70
2006,02,03,04,30,11.60
2006,02,03,04,31,8.30
2006,02,03,04,32,7.20
2006,02,03,04,33,7.60
2006,02,03,04,34,11.40
2006,02,03,04,35,7.70
2006,02,03,04,36,8.60
2006,02,03,04,37,8.00
2006,02,03,04,38,7.20
2006,02,03,04,39,7.40
2006,02,03,04,40,7.80
2006,02,03,04,41,8.30
2006,02,03,04,42,7.60
2006,02,03,04,43,6.30
2006,02,03,04,44,7.70
2006,02,03,04,45,7.20
2006,02,03,04,46,5.40
2006,02,03,04,47,6.30
2006,02,03,04,48,6.70
2006,02,03,04,49,5.00
2006,02,03,04,50,4.80
2006,02,03,04,51,5.40
2006,02,03,04,52,4.90
2006,02,03,04,53,6.60
2006,02,03,04,54,7.60
2006,02,03,04,55,6.00
2006,02,03,04,56,6.80
2006,02,03,04,57,7.60
2006,02,03,04,58,7.40
2006,02,03,04,59,3.90
2006,02,03,05,00,5.60
2006,02,03,05,01,3.20
2006,02,03,05,02,2.50
2006,02,03,05,03,4.30
2006,02,03,05,04,2.50
2006,02,03,05,05,2.60
2006,02,03,05,06,2.10
2006,02,03,05,07,0.20
2006,02,03,05,08,0.00
2006,02,03,05,09,1.30
2006,02,03,05,10,2.60
2006,02,03,05,11,2.30
2006,02,03,05,12,2.00
2006,02,03,05,13,2.50
2006,02,03,05,14,2.60
2006,02,03,05,15,2.10
2006,02,03,05,16,1.30
2006,02,03,05,17,1.50
2006,02,03,05,18,0.30
2006,02,03,05,19,3.10
2006,02,03,05,20,2.80
2006,02,03,05,21,2.60
2006,02,03,05,22,2.50
2006,02,03,05,23,1.90
2006,02,03,05,24,1.40
2006,02,03,05,25,3.00
2006,02,03,05,26,0.70
2006,02,03,05,27,0.10
2006,02,03,05,28,0.50
2006,02,03,05,29,2.30
2006,02,03,05,30,3.10
2006,02,03,05,31,3.20
2006,02,03,05,32,3.50
2006,02,03,05,33,2.00
2006,02,03,05,34,3.70
2006,02,03,05,35,4.00
2006,02,03,05,36,4.00
2006,02,03,05,37,2.30
2006,02,03,05,38,2.50
2006,02,03,05,39,3.30
2006,02,03,05,40,4.20
2006,02,03,05,41,4.80
2006,02,03,05,42,5.30
2006,02,03,05,43,5.60
2006,02,03,05,44,5.30
2006,02,03,05,45,5.00
2006,02,03,05,46,3.40
2006,02,03,05,47,1.70
2006,02,03,05,48,2.00
2006,02,03,05,49,3.10
2006,02,03,05,50,3.20
2006,02,03,05,51,3.70
2006,02,03,05,52,3.30
2006,02,03,05,53,2.60
2006,02,03,05,54,2.90
2006,02,03,05,55,3.30
2006,02,03,05,56,2.00
2006,02,03,05,57,0.90
2006,02,03,05,58,0.00
2006,02,03,05,59,0.30
2006,02,03,06,00,1.60
2006,02,03,06,01,1.40
2006,02,03,06,02,1.70
2006,02,03,06,03,2.90
2006,02,03,06,04,2.40
2006,02,03,06,05,3.10
2006,02,03,06,06,2.70
2006,02,03,06,07,2.80
2006,02,03,06,08,3.30
2006,02,03,06,09,3.20
2006,02,03,06,10,2.90
2006,02,03,06,11,3.20
2006,02,03,06,12,2.20
2006,02,03,06,13,2.80
2006,02,03,06,14,3.70
2006,02,03,06,15,3.10
2006,02,03,06,16,2.10
2006,02,03,06,17,1.50
2006,02,03,06,18,1.40
2006,02,03,06,19,2.20
2006,02,03,06,20,2.20
2006,02,03,06,21,1.60
2006,02,03,06,22,2.50
2006,02,03,06,23,0.60
2006,02,03,06,24,1.90
2006,02,03,06,25,2.90
2006,02,03,06,26,3.60
2006,02,03,06,27,4.50
2006,02,03,06,28,4.30
2006,02,03,06,29,3.30
2006,02,03,06,30,1.60
2006,02,03,06,31,4.10
2006,02,03,06,32,6.00
2006,02,03,06,33,5.60
2006,02,03,06,34,3.00
2006,02,03,06,35,2.60
2006,02,03,06,36,3.30
2006,02,03,06,37,4.10
2006,02,03,06,38,3.10
2006,02,03,06,39,3.50
2006,02,03,06,40,2.60
2006,02,03,06,41,3.10
2006,02,03,06,42,3.00
2006,02,03,06,43,3.00
2006,02,03,06,44,3.10
2006,02,03,06,45,2.60
2006,02,03,06,46,2.80
2006,02,03,06,47,3.00
2006,02,03,06,48,1.60
2006,02,03,06,49,3.50
2006,02,03,06,50,4.80
2006,02,03,06,51,3.50
2006,02,03,06,52,3.70
2006,02,03,06,53,3.60
2006,02,03,06,54,2.60
2006,02,03,06,55,2.70
2006,02,03,06,56,2.60
2006,02,03,06,57,2.80
2006,02,03,06,58,2.50
2006,02,03,06,59,2.30
2006,02,03,07,00,2.00
2006,02,03,07,01,1.70
2006,02,03,07,02,1.50
2006,02,03,07,03,2.00
2006,02,03,07,04,1.10
2006,02,03,07,05,0.10
2006,02,03,07,06,0.00
2006,02,03,07,07,0.00
2006,02,03,07,08,0.00
2006,02,03,07,09,0.00
2006,02,03,07,10,0.00
2006,02,03,07,11,0.00
2006,02,03,07,12,0.00
2006,02,03,07,13,0.00
2006,02,03,07,14,0.00
2006,02,03,07,15,0.00
2006,02,03,07,16,0.00
2006,02,03,07,17,0.00
2006,02,03,07,18,0.00
2006,02,03,07,19,0.00
2006,02,03,07,20,0.00
2006,02,03,07,21,0.00
2006,02,03,07,22,0.00
2006,02,03,07,23,0.00
2006,02,03,07,24,0.00
2006,02,03,07,25,0.00
2006,02,03,07,26,0.00
2006,02,03,07,27,0.00
2006,02,03,07,28,0.00
2006,02,03,07,29,0.00
2006,02,03,07,30,0.00
2006,02,03,07,31,0.00
2006,02,03,07,32,0.00
2006,02,03,07,33,0.00
2006,02,03,07,34,0.00
2006,02,03,07,35,0.00
2006,02,03,07,36,0.00
2006,02,03,07,37,0.00
2006,02,03,07,38,0.00
2006,02,03,07,39,0.00
2006,02,03,07,40,0.00
2006,02,03,07,41,0.00
2006,02,03,07,42,0.00
2006,02,03,07,43,0.00
2006,02,03,07,44,0.10
2006,02,03,07,45,2.20
2006,02,03,07,46,2.10
2006,02,03,07,47,2.70
2006,02,03,07,48,1.90
2006,02,03,07,49,0.90
2006,02,03,07,50,1.00
2006,02,03,07,51,2.70
2006,02,03,07,52,3.40
2006,02,03,07,53,2.70
2006,02,03,07,54,3.00
2006,02,03,07,55,2.90
2006,02,03,07,56,1.80
2006,02,03,07,57,3.00
2006,02,03,07,58,2.00
2006,02,03,07,59,0.00
2006,02,03,08,00,0.00
2006,02,03,08,01,0.00
2006,02,03,08,02,0.00
2006,02,03,08,03,0.00
2006,02,03,08,04,0.40
2006,02,03,08,05,0.80
2006,02,03,08,06,2.10
2006,02,03,08,07,0.30
2006,02,03,08,08,0.00
2006,02,03,08,09,0.00
2006,02,03,08,10,0.30
2006,02,03,08,11,0.10
2006,02,03,08,12,0.90
2006,02,03,08,13,0.00
2006,02,03,08,14,0.60
2006,02,03,08,15,0.20
2006,02,03,08,16,0.00
2006,02,03,08,17,0.50
2006,02,03,08,18,1.80
2006,02,03,08,19,3.20
2006,02,03,08,20,3.70
2006,02,03,08,21,2.20
2006,02,03,08,22,2.50
2006,02,03,08,23,2.20
2006,02,03,08,24,1.40
2006,02,03,08,25,1.30
2006,02,03,08,26,1.00
2006,02,03,08,27,1.70
2006,02,03,08,28,0.60
2006,02,03,08,29,0.10
2006,02,03,08,30,2.60
2006,02,03,08,31,1.90
2006,02,03,08,32,0.60
2006,02,03,08,33,1.90
2006,02,03,08,34,1.90
2006,02,03,08,35,0.00
2006,02,03,08,36,4.00
2006,02,03,08,37,2.50
2006,02,03,08,38,0.50
2006,02,03,08,39,0.00
2006,02,03,08,40,0.30
2006,02,03,08,41,1.60
2006,02,03,08,42,3.10
2006,02,03,08,43,1.30
2006,02,03,08,44,1.70
2006,02,03,08,45,1.90
2006,02,03,08,46,0.10
2006,02,03,08,47,0.50
2006,02,03,08,48,2.30
2006,02,03,08,49,2.10
2006,02,03,08,50,1.60
2006,02,03,08,51,2.30
2006,02,03,08,52,1.20
2006,02,03,08,53,2.30
2006,02,03,08,54,1.40
2006,02,03,08,55,0.30
2006,02,03,08,56,3.20
2006,02,03,08,57,2.20
2006,02,03,08,58,1.00
2006,02,03,08,59,0.60
2006,02,03,09,00,2.90
2006,02,03,09,01,0.00
2006,02,03,09,02,0.60
2006,02,03,09,03,3.90
2006,02,03,09,04,6.80
2006,02,03,09,05,5.10
2006,02,03,09,06,5.20
2006,02,03,09,07,3.70
2006,02,03,09,08,2.20
2006,02,03,09,09,5.20
2006,02,03,09,10,3.00
2006,02,03,09,11,3.60
2006,02,03,09,12,3.10
2006,02,03,09,13,2.10
2006,02,03,09,14,3.40
2006,02,03,09,15,3.30
2006,02,03,09,16,2.70
2006,02,03,09,17,3.60
2006,02,03,09,18,4.60
2006,02,03,09,19,3.90
2006,02,03,09,20,5.00
2006,02,03,09,21,3.10
2006,02,03,09,22,4.00
2006,02,03,09,23,1.20
2006,02,03,09,24,3.90
2006,02,03,09,25,4.60
2006,02,03,09,26,3.20
2006,02,03,09,27,1.90
2006,02,03,09,28,4.00
2006,02,03,09,29,2.50
2006,02,03,09,30,3.90
2006,02,03,09,31,3.60
2006,02,03,09,32,2.70
2006,02,03,09,33,1.00
2006,02,03,09,34,1.30
2006,02,03,09,35,3.00
2006,02,03,09,36,4.70
2006,02,03,09,37,5.20
2006,02,03,09,38,3.60
2006,02,03,09,39,1.70
2006,02,03,09,40,4.90
2006,02,03,09,41,4.00
2006,02,03,09,42,3.60
2006,02,03,09,43,4.70
2006,02,03,09,44,2.50
2006,02,03,09,45,2.30
2006,02,03,09,46,1.20
2006,02,03,09,47,3.90
2006,02,03,09,48,4.70
2006,02,03,09,49,5.20
2006,02,03,09,50,3.80
2006,02,03,09,51,4.20
2006,02,03,09,52,3.10
2006,02,03,09,53,6.60
2006,02,03,09,54,5.90
2006,02,03,09,55,3.10
2006,02,03,09,56,2.00
2006,02,03,09,57,1.20
2006,02,03,09,58,1.30
2006,02,03,09,59,2.10
2006,02,03,10,00,5.00
2006,02,03,10,01,4.80
2006,02,03,10,02,2.60
2006,02,03,10,03,5.30
2006,02,03,10,04,0.30
2006,02,03,10,05,3.30
2006,02,03,10,06,1.90
2006,02,03,10,07,7.50
2006,02,03,10,08,2.00
2006,02,03,10,09,3.30
2006,02,03,10,10,2.90
2006,02,03,10,11,4.00
2006,02,03,10,12,3.30
2006,02,03,10,13,3.50
2006,02,03,10,14,5.20
2006,02,03,10,15,3.50
2006,02,03,10,16,5.30
2006,02,03,10,17,5.30
2006,02,03,10,18,3.50
2006,02,03,10,19,6.60
2006,02,03,10,20,4.10
2006,02,03,10,21,4.10
2006,02,03,10,22,3.50
2006,02,03,10,23,5.80
2006,02,03,10,24,6.70
2006,02,03,10,25,7.00
2006,02,03,10,26,5.40
2006,02,03,10,27,5.60
2006,02,03,10,28,7.20
2006,02,03,10,29,6.40
2006,02,03,10,30,5.50
2006,02,03,10,31,4.70
2006,02,03,10,32,5.10
2006,02,03,10,33,6.40
2006,02,03,10,34,6.50
2006,02,03,10,35,8.60
2006,02,03,10,36,8.50
2006,02,03,10,37,6.70
2006,02,03,10,38,4.70
2006,02,03,10,39,6.40
2006,02,03,10,40,6.60
2006,02,03,10,41,7.30
2006,02,03,10,42,7.20
2006,02,03,10,43,8.10
2006,02,03,10,44,5.10
2006,02,03,10,45,5.10
2006,02,03,10,46,8.10
2006,02,03,10,47,7.70
2006,02,03,10,48,6.40
2006,02,03,10,49,3.80
2006,02,03,10,50,5.30
2006,02,03,10,51,5.70
2006,02,03,10,52,10.40
2006,02,03,10,53,11.70
2006,02,03,10,54,10.90
2006,02,03,10,55,10.40
2006,02,03,10,56,8.50
2006,02,03,10,57,8.10
2006,02,03,10,58,7.20
2006,02,03,10,59,7.60
2006,02,03,11,00,9.50
2006,02,03,11,01,6.80
2006,02,03,11,02,8.90
2006,02,03,11,03,8.20
2006,02,03,11,04,7.40
2006,02,03,11,05,7.40
2006,02,03,11,06,9.30
2006,02,03,11,07,9.90
2006,02,03,11,08,5.20
2006,02,03,11,09,15.20
2006,02,03,11,10,10.50
2006,02,03,11,11,9.20
2006,02,03,11,12,11.10
2006,02,03,11,13,8.80
2006,02,03,11,14,9.40
2006,02,03,11,15,11.10
2006,02,03,11,16,12.20
2006,02,03,11,17,15.10
2006,02,03,11,18,11.50
2006,02,03,11,19,14.50
2006,02,03,11,20,14.90
2006,02,03,11,21,13.40
2006,02,03,11,22,12.90
2006,02,03,11,23,14.90
2006,02,03,11,24,15.00
2006,02,03,11,25,9.30
2006,02,03,11,26,9.60
2006,02,03,11,27,11.80
2006,02,03,11,28,11.10
2006,02,03,11,29,13.90
2006,02,03,11,30,9.60
2006,02,03,11,31,11.90
2006,02,03,11,32,9.40
2006,02,03,11,33,8.60
2006,02,03,11,34,10.70
2006,02,03,11,35,6.90
2006,02,03,11,36,14.50
2006,02,03,11,37,9.70
2006,02,03,11,38,8.70
2006,02,03,11,39,10.10
2006,02,03,11,40,10.30
2006,02,03,11,41,15.40
2006,02,03,11,42,12.60
2006,02,03,11,43,7.40
2006,02,03,11,44,8.40
2006,02,03,11,45,5.40
2006,02,03,11,46,7.40
2006,02,03,11,47,8.90
2006,02,03,11,48,10.20
2006,02,03,11,49,7.10
2006,02,03,11,50,9.50
2006,02,03,11,51,11.50
2006,02,03,11,52,9.90
2006,02,03,11,53,10.20
2006,02,03,11,54,14.20
2006,02,03,11,55,10.90
2006,02,03,11,56,8.10
2006,02,03,11,57,7.30
2006,02,03,11,58,10.20
2006,02,03,11,59,12.10
2006,02,03,12,00,11.40
2006,02,03,12,01,11.30
2006,02,03,12,02,9.30
2006,02,03,12,03,8.10
2006,02,03,12,04,9.30
2006,02,03,12,05,5.30
2006,02,03,12,06,11.10
2006,02,03,12,07,13.00
2006,02,03,12,08,8.70
2006,02,03,12,09,7.70
2006,02,03,12,10,9.30
2006,02,03,12,11,8.50
2006,02,03,12,12,9.30
2006,02,03,12,13,9.90
2006,02,03,12,14,12.10
2006,02,03,12,15,11.30
2006,02,03,12,16,7.70
2006,02,03,12,17,12.00
2006,02,03,12,18,8.60
2006,02,03,12,19,10.20
2006,02,03,12,20,8.70
2006,02,03,12,21,12.00
2006,02,03,12,22,9.00
2006,02,03,12,23,8.20
2006,02,03,12,24,7.20
2006,02,03,12,25,10.00
2006,02,03,12,26,13.00
2006,02,03,12,27,12.40
2006,02,03,12,28,14.50
2006,02,03,12,29,14.90
2006,02,03,12,30,11.50
2006,02,03,12,31,13.80
2006,02,03,12,32,11.70
2006,02,03,12,33,11.50
2006,02,03,12,34,13.10
2006,02,03,12,35,8.40
2006,02,03,12,36,8.00
2006,02,03,12,37,13.60
2006,02,03,12,38,8.90
2006,02,03,12,39,11.40
2006,02,03,12,40,10.50
2006,02,03,12,41,11.90
2006,02,03,12,42,17.70
2006,02,03,12,43,11.30
2006,02,03,12,44,13.50
2006,02,03,12,45,11.50
2006,02,03,12,46,10.00
2006,02,03,12,47,11.50
2006,02,03,12,48,8.60
2006,02,03,12,49,13.20
2006,02,03,12,50,10.80
2006,02,03,12,51,11.80
2006,02,03,12,52,9.10
2006,02,03,12,53,6.80
2006,02,03,12,54,6.30
2006,02,03,12,55,11.20
2006,02,03,12,56,10.20
2006,02,03,12,57,8.10
2006,02,03,12,58,12.30
2006,02,03,12,59,12.00
2006,02,03,13,00,9.40
2006,02,03,13,01,9.20
2006,02,03,13,02,12.10
2006,02,03,13,03,11.50
2006,02,03,13,04,11.60
2006,02,03,13,05,6.90
2006,02,03,13,06,10.20
2006,02,03,13,07,9.30
2006,02,03,13,08,7.80
2006,02,03,13,09,10.00
2006,02,03,13,10,6.70
2006,02,03,13,11,9.20
2006,02,03,13,12,8.90
2006,02,03,13,13,6.70
2006,02,03,13,14,10.80
2006,02,03,13,15,9.50
2006,02,03,13,16,11.10
2006,02,03,13,17,10.40
2006,02,03,13,18,9.00
2006,02,03,13,19,7.50
2006,02,03,13,20,8.40
2006,02,03,13,21,10.50
2006,02,03,13,22,9.20
2006,02,03,13,23,9.90
2006,02,03,13,24,7.70
2006,02,03,13,25,8.40
2006,02,03,13,26,7.60
2006,02,03,13,27,7.40
2006,02,03,13,28,6.40
2006,02,03,13,29,12.10
2006,02,03,13,30,7.30
2006,02,03,13,31,6.40
2006,02,03,13,32,6.70
2006,02,03,13,33,9.00
2006,02,03,13,34,6.50
2006,02,03,13,35,9.80
2006,02,03,13,36,8.90
2006,02,03,13,37,10.60
2006,02,03,13,38,12.70
2006,02,03,13,39,7.20
2006,02,03,13,40,9.70
2006,02,03,13,41,10.00
2006,02,03,13,42,11.80
2006,02,03,13,43,10.10
2006,02,03,13,44,6.70
2006,02,03,13,45,12.10
2006,02,03,13,46,8.50
2006,02,03,13,47,9.50
2006,02,03,13,48,10.50
2006,02,03,13,49,10.10
2006,02,03,13,50,10.70
2006,02,03,13,51,10.30
2006,02,03,13,52,10.40
2006,02,03,13,53,10.40
2006,02,03,13,54,6.90
2006,02,03,13,55,11.70
2006,02,03,13,56,11.60
2006,02,03,13,57,15.70
2006,02,03,13,58,10.00
2006,02,03,13,59,9.90
2006,02,03,14,00,15.30
2006,02,03,14,01,13.80
2006,02,03,14,02,12.00
2006,02,03,14,03,9.30
2006,02,03,14,04,8.60
2006,02,03,14,05,10.20
2006,02,03,14,06,15.40
2006,02,03,14,07,15.00
2006,02,03,14,08,16.10
2006,02,03,14,09,13.60
2006,02,03,14,10,15.00
2006,02,03,14,11,13.90
2006,02,03,14,12,12.00
2006,02,03,14,13,16.30
2006,02,03,14,14,17.70
2006,02,03,14,15,19.10
2006,02,03,14,16,19.50
2006,02,03,14,17,17.40
2006,02,03,14,18,18.90
2006,02,03,14,19,16.30
2006,02,03,14,20,17.90
2006,02,03,14,21,17.50
2006,02,03,14,22,15.50
2006,02,03,14,23,12.20
2006,02,03,14,24,16.70
2006,02,03,14,25,14.10
2006,02,03,14,26,16.30
2006,02,03,14,27,13.40
2006,02,03,14,28,17.00
2006,02,03,14,29,18.20
2006,02,03,14,30,20.80
2006,02,03,14,31,19.70
2006,02,03,14,32,17.30
2006,02,03,14,33,21.10
2006,02,03,14,34,20.40
2006,02,03,14,35,17.90
2006,02,03,14,36,16.30
2006,02,03,14,37,19.10
2006,02,03,14,38,17.40
2006,02,03,14,39,17.40
2006,02,03,14,40,18.30
2006,02,03,14,41,16.20
2006,02,03,14,42,15.20
2006,02,03,14,43,17.50
2006,02,03,14,44,14.80
2006,02,03,14,45,16.70
2006,02,03,14,46,17.00
2006,02,03,14,47,16.00
2006,02,03,14,48,18.00
2006,02,03,14,49,15.20
2006,02,03,14,50,10.80
2006,02,03,14,51,10.90
2006,02,03,14,52,8.00
2006,02,03,14,53,12.10
2006,02,03,14,54,8.60
2006,02,03,14,55,10.00
2006,02,03,14,56,6.60
2006,02,03,14,57,8.70
2006,02,03,14,58,6.70
2006,02,03,14,59,12.40
2006,02,03,15,00,9.70
2006,02,03,15,01,12.80
2006,02,03,15,02,12.00
2006,02,03,15,03,13.90
2006,02,03,15,04,11.80
2006,02,03,15,05,8.50
2006,02,03,15,06,8.70
2006,02,03,15,07,8.90
2006,02,03,15,08,5.80
2006,02,03,15,09,10.90
2006,02,03,15,10,10.70
2006,02,03,15,11,10.10
2006,02,03,15,12,8.60
2006,02,03,15,13,8.40
2006,02,03,15,14,7.40
2006,02,03,15,15,7.30
2006,02,03,15,16,8.90
2006,02,03,15,17,9.80
2006,02,03,15,18,7.30
2006,02,03,15,19,6.10
2006,02,03,15,20,10.80
2006,02,03,15,21,10.30
2006,02,03,15,22,10.30
2006,02,03,15,23,7.60
2006,02,03,15,24,6.30
2006,02,03,15,25,9.10
2006,02,03,15,26,10.40
2006,02,03,15,27,6.30
2006,02,03,15,28,7.40
2006,02,03,15,29,8.50
2006,02,03,15,30,8.00
2006,02,03,15,31,10.50
2006,02,03,15,32,9.40
2006,02,03,15,33,11.80
2006,02,03,15,34,13.00
2006,02,03,15,35,9.30
2006,02,03,15,36,8.30
2006,02,03,15,37,6.90
2006,02,03,15,38,5.60
2006,02,03,15,39,7.40
2006,02,03,15,40,14.60
2006,02,03,15,41,17.70
2006,02,03,15,42,11.70
2006,02,03,15,43,7.60
2006,02,03,15,44,9.70
2006,02,03,15,45,6.10
2006,02,03,15,46,9.10
2006,02,03,15,47,8.60
2006,02,03,15,48,9.60
2006,02,03,15,49,9.00
2006,02,03,15,50,8.20
2006,02,03,15,51,12.20
2006,02,03,15,52,8.40
2006,02,03,15,53,7.60
2006,02,03,15,54,5.90
2006,02,03,15,55,7.50
2006,02,03,15,56,7.00
2006,02,03,15,57,7.50
2006,02,03,15,58,7.60
2006,02,03,15,59,8.20
2006,02,03,16,00,9.10
2006,02,03,16,01,6.40
2006,02,03,16,02,5.40
2006,02,03,16,03,3.10
2006,02,03,16,04,6.10
2006,02,03,16,05,6.40
2006,02,03,16,06,5.60
2006,02,03,16,07,8.10
2006,02,03,16,08,6.10
2006,02,03,16,09,5.40
2006,02,03,16,10,7.60
2006,02,03,16,11,6.50
2006,02,03,16,12,5.60
2006,02,03,16,13,5.80
2006,02,03,16,14,6.80
2006,02,03,16,15,4.60
2006,02,03,16,16,6.10
2006,02,03,16,17,5.00
2006,02,03,16,18,6.80
2006,02,03,16,19,6.60
2006,02,03,16,20,5.90
2006,02,03,16,21,4.40
2006,02,03,16,22,3.60
2006,02,03,16,23,5.30
2006,02,03,16,24,5.80
2006,02,03,16,25,6.00
2006,02,03,16,26,4.20
2006,02,03,16,27,3.50
2006,02,03,16,28,4.40
2006,02,03,16,29,10.40
2006,02,03,16,30,6.80
2006,02,03,16,31,8.20
2006,02,03,16,32,4.70
2006,02,03,16,33,12.10
2006,02,03,16,34,9.30
2006,02,03,16,35,7.30
2006,02,03,16,36,11.20
2006,02,03,16,37,8.60
2006,02,03,16,38,7.30
2006,02,03,16,39,11.60
2006,02,03,16,40,8.70
2006,02,03,16,41,11.20
2006,02,03,16,42,6.00
2006,02,03,16,43,5.40
2006,02,03,16,44,6.70
2006,02,03,16,45,3.80
2006,02,03,16,46,11.60
2006,02,03,16,47,10.80
2006,02,03,16,48,9.80
2006,02,03,16,49,10.40
2006,02,03,16,50,11.80
2006,02,03,16,51,8.80
2006,02,03,16,52,10.80
2006,02,03,16,53,8.10
2006,02,03,16,54,4.80
2006,02,03,16,55,8.80
2006,02,03,16,56,7.50
2006,02,03,16,57,12.00
2006,02,03,16,58,10.80
2006,02,03,16,59,6.40
2006,02,03,17,00,6.40
2006,02,03,17,01,10.20
2006,02,03,17,02,7.40
2006,02,03,17,03,9.40
2006,02,03,17,04,6.60
2006,02,03,17,05,5.30
2006,02,03,17,06,4.90
2006,02,03,17,07,5.80
2006,02,03,17,08,9.70
2006,02,03,17,09,10.10
2006,02,03,17,10,14.00
2006,02,03,17,11,10.40
2006,02,03,17,12,7.90
2006,02,03,17,13,8.40
2006,02,03,17,14,8.00
2006,02,03,17,15,6.00
2006,02,03,17,16,7.10
2006,02,03,17,17,8.20
2006,02,03,17,18,11.00
2006,02,03,17,19,9.70
2006,02,03,17,20,9.70
2006,02,03,17,21,8.90
2006,02,03,17,22,8.60
2006,02,03,17,23,9.70
2006,02,03,17,24,13.50
2006,02,03,17,25,8.90
2006,02,03,17,26,8.30
2006,02,03,17,27,7.70
2006,02,03,17,28,5.80
2006,02,03,17,29,10.10
2006,02,03,17,30,9.80
2006,02,03,17,31,8.30
2006,02,03,17,32,9.30
2006,02,03,17,33,10.30
2006,02,03,17,34,9.90
2006,02,03,17,35,8.80
2006,02,03,17,36,8.60
2006,02,03,17,37,9.70
2006,02,03,17,38,10.30
2006,02,03,17,39,10.00
2006,02,03,17,40,9.90
2006,02,03,17,41,5.70
2006,02,03,17,42,5.80
2006,02,03,17,43,7.90
2006,02,03,17,44,6.20
2006,02,03,17,45,6.40
2006,02,03,17,46,14.10
2006,02,03,17,47,11.80
2006,02,03,17,48,10.80
2006,02,03,17,49,7.20
2006,02,03,17,50,9.20
2006,02,03,17,51,5.60
2006,02,03,17,52,14.50
2006,02,03,17,53,8.70
2006,02,03,17,54,7.70
2006,02,03,17,55,6.10
2006,02,03,17,56,9.50
2006,02,03,17,57,8.90